Tracking 30101 objects as of 14-Dec-2024
HD Live streaming from Space Station
objects crossing your sky now

SBS 2

Track SBS 2 now!
SBS 2 is classified as:


NORAD ID: 12855
Int'l Code: 1981-096A
Perigee: 35,794.1 km
Apogee: 35,857.5 km
Inclination: 11.1 °
Period: 1,437.7 minutes
Semi major axis: 42196 km
RCS: 7.6855 m2 (large)
Launch date: September 24, 1981
Source: United States (US)
Launch site: AIR FORCE EASTERN TEST RANGE (AFETR)
Your satellite tracking list
Your tracking list is empty




NASA's NSSDC Master Catalog

Two Line Element Set (TLE):
1 12855U 81096A   24348.73305119 -.00000201  00000-0  00000+0 0  9998
2 12855  11.1396 325.1257 0007521 237.7138 120.2383  1.00157553113051
Source of the keplerian elements: AFSPC